Theta_e
323 317 319 322 321 321 321 321 319 322 320 321 320 321 323 324 329 331 340 340 335 335 345 337 343 342 340 337 339 346 349 350 349 343 340 334 332 333 334 332 330 329 325 323 321 319 316 314 311
322 320 319 321 320 320 320 319 321 320 321 320 321 321 322 325 323 326 336 338 333 333 334 350 339 343 340 336 334 336 340 340 336 329 327 326 328 330 329 326 326 323 320 317 315 314 313 313 315
323 323 323 324 321 318 319 319 320 320 320 319 321 323 323 327 334 328 339 333 333 339 340 349 338 343 340 336 333 330 329 329 327 324 324 324 325 325 324 324 322 318 316 315 314 314 315 316 319
325 326 323 323 320 320 319 321 320 320 321 319 321 326 325 336 334 342 340 334 329 338 340 337 337 341 340 336 332 329 328 327 325 324 324 323 323 323 323 322 319 315 315 315 314 315 316 318 322
325 326 320 323 320 321 319 320 320 321 321 322 324 327 327 328 338 339 338 334 333 338 340 338 335 337 338 334 332 330 328 327 324 323 322 322 322 322 322 322 318 316 315 315 315 316 317 319 322
328 327 328 323 319 320 321 321 322 322 322 325 328 327 328 333 339 338 336 334 334 339 340 344 334 336 336 332 332 330 328 327 323 321 322 322 322 322 322 321 319 316 315 315 314 316 317 319 321
327 328 326 327 326 325 324 322 323 324 327 327 327 325 328 327 338 336 335 334 336 339 340 346 344 342 337 332 331 331 331 328 323 322 322 322 322 321 323 321 320 316 315 316 316 316 317 317 320
329 328 326 326 325 326 325 326 326 326 326 326 325 328 328 326 338 337 335 335 336 338 338 344 347 346 348 344 331 331 332 333 328 326 325 323 322 323 324 324 322 318 316 316 316 316 317 318 319
325 327 326 327 326 325 326 326 325 325 325 325 325 325 324 323 338 337 336 335 335 336 339 341 344 346 347 346 341 330 330 331 330 330 329 330 337 337 335 329 325 322 318 316 316 316 319 320 322
322 322 324 325 326 326 326 325 325 324 325 325 324 323 322 321 326 335 337 336 334 333 336 340 343 346 347 346 347 341 338 341 341 343 342 344 345 345 343 340 328 326 323 320 318 317 320 325 332
317 319 322 325 325 325 325 322 322 322 324 325 321 321 320 321 324 327 335 336 335 333 334 338 341 343 344 343 344 345 345 347 347 343 340 345 342 334 341 342 339 335 330 334 331 333 332 332 332
314 315 318 320 322 320 323 317 319 319 321 319 318 318 320 320 322 323 327 333 336 334 333 335 334 336 339 341 342 340 340 343 342 337 332 339 333 330 339 341 341 340 338 337 334 333 333 334 333
312 313 312 313 313 315 315 318 318 317 315 315 317 317 318 319 320 323 324 324 332 337 334 332 333 330 331 336 338 336 337 337 339 331 329 331 331 332 337 339 338 334 336 333 333 332 333 333 333
310 311 311 311 312 312 313 315 315 316 315 315 317 317 318 319 320 322 324 327 331 331 339 334 326 325 327 327 328 329 331 335 328 326 324 323 323 327 329 331 330 329 329 331 330 330 331 332 332
310 311 311 311 312 312 312 313 314 312 314 314 315 315 315 316 315 317 319 321 323 322 327 341 331 329 325 323 325 329 327 326 323 322 321 322 324 326 324 324 329 330 324 322 323 325 327 332 332
310 309 310 309 310 311 312 315 313 312 313 313 313 313 314 315 316 316 316 317 318 319 324 338 342 337 330 326 326 324 326 324 323 321 320 320 322 322 325 324 325 324 326 325 323 329 332 333 333
310 309 310 312 312 312 312 312 312 312 312 313 313 313 313 315 316 316 316 316 315 315 316 321 332 343 341 333 329 327 327 325 324 322 320 320 321 322 323 328 329 324 327 326 330 332 333 335 335
312 311 311 312 312 313 312 312 312 312 311 312 313 313 313 314 315 314 315 315 313 312 312 314 322 327 337 342 336 334 332 329 325 323 323 324 323 323 324 328 328 325 330 334 335 335 336 337 338
311 311 311 311 311 312 312 312 311 312 312 312 312 313 314 313 315 313 313 315 315 313 313 314 315 328 346 345 344 341 338 334 331 327 325 328 326 326 328 336 329 330 336 338 337 338 338 338 337
310 310 311 313 312 311 311 311 311 311 312 312 312 312 313 312 312 312 313 315 317 317 314 314 315 315 328 341 345 345 345 342 339 337 334 331 330 331 335 338 337 337 339 339 339 339 339 340 338
311 312 313 311 311 311 311 309 311 310 310 311 312 312 311 311 311 315 316 315 316 316 316 315 315 315 315 319 335 343 345 345 346 345 344 339 337 335 339 341 341 341 340 342 341 340 341 341 339
312 313 312 311 311 310 310 307 310 310 310 311 312 314 314 313 315 316 316 314 314 314 314 312 313 316 317 317 324 333 337 341 343 346 347 344 342 342 342 342 343 342 342 343 343 341 341 341 342
311 312 312 311 311 311 309 310 310 310 310 312 311 313 315 315 315 315 315 313 313 314 314 315 312 314 316 317 317 326 334 335 339 342 344 344 343 342 344 343 345 345 344 345 343 341 340 340 342
311 311 309 309 311 310 309 310 310 310 311 312 310 311 313 316 315 315 314 313 313 314 314 315 316 314 317 317 316 321 327 333 336 338 340 342 342 346 343 345 346 344 343 343 342 342 340 341 342
310 311 311 310 309 308 310 310 310 310 311 311 310 311 313 315 315 314 314 314 313 314 315 315 315 317 319 317 317 319 321 322 335 338 338 339 340 342 343 343 343 342 343 341 339 341 342 342 342
311 311 312 311 309 308 309 310 310 310 310 311 311 313 314 313 314 314 313 313 314 315 315 315 316 317 318 318 320 324 328 329 333 336 339 338 338 340 340 340 340 339 338 333 340 342 343 343 341
311 312 310 311 311 312 310 310 310 310 311 311 312 314 313 313 315 314 313 312 313 317 317 317 317 317 318 318 320 323 326 330 330 334 339 339 338 339 338 337 335 339 331 338 343 345 345 343 341
311 310 312 313 313 312 310 310 310 310 310 311 313 312 312 313 315 316 314 313 314 316 317 319 319 319 318 319 321 323 326 331 332 332 337 337 338 337 340 336 335 334 336 345 345 346 346 345 341
311 312 313 313 314 313 312 310 311 311 311 312 311 312 312 314 315 316 314 313 316 316 317 319 322 322 321 322 322 324 327 330 333 334 336 337 339 339 340 337 341 341 346 347 347 346 345 343 340
310 312 313 316 315 315 315 313 311 311 311 311 312 312 312 314 314 314 315 316 317 316 315 316 319 322 325 325 324 325 330 332 332 333 334 337 339 339 339 341 343 345 347 347 346 344 342 340 339
Wind_Speed
7 4 1 1 3 2 3 3 1 4 2 2 4 5 8 11 7 3 3 20 26 37 37 39 40 40 38 36 34 34 34 32 30 27 25 24 23 21 20 18 17 15 14 13 12 11 10 9 9
5 2 2 2 3 6 5 3 7 5 4 9 9 3 6 9 13 19 4 20 31 38 41 36 41 41 39 38 37 35 34 32 30 28 27 25 23 21 20 19 18 16 14 13 12 11 10 9 9
2 3 1 2 3 9 1 6 6 2 9 3 4 5 5 4 6 7 8 29 30 34 38 36 42 41 40 39 37 36 35 33 31 29 28 26 24 22 20 18 17 15 14 13 11 11 10 10 9
1 2 3 3 11 1 2 3 3 6 3 4 4 10 6 1 19 14 16 26 42 36 37 40 44 41 39 38 38 37 35 34 32 30 28 27 25 23 20 19 17 15 13 12 11 10 10 10 9
2 1 3 3 7 2 3 8 8 12 8 7 6 8 10 16 24 13 10 25 37 36 35 40 45 43 41 39 38 37 37 35 33 31 29 27 25 23 21 19 16 14 13 12 11 10 10 10 9
3 1 5 8 10 3 3 7 5 6 6 7 8 12 3 19 23 11 7 20 28 36 36 35 45 44 43 40 39 38 38 37 34 31 29 27 25 23 22 20 17 15 14 13 12 11 10 9 9
4 5 11 9 9 5 2 3 1 4 8 3 11 6 6 22 18 8 4 12 23 27 31 31 36 39 42 41 40 39 38 36 33 31 29 27 25 23 23 21 19 16 13 12 11 11 11 10 9
3 3 9 8 13 13 4 3 0 2 9 6 7 5 9 19 11 6 4 7 17 21 26 27 29 31 30 33 40 39 38 36 34 31 29 27 25 24 23 21 19 17 14 13 12 11 11 11 10
3 7 11 15 13 9 6 3 4 4 10 4 2 8 12 19 6 4 3 8 12 18 23 26 28 29 28 28 33 40 38 36 34 31 29 27 20 20 20 20 19 18 15 13 13 13 13 12 12
8 9 14 8 13 9 4 2 6 5 11 10 8 8 14 20 9 8 5 11 15 19 21 23 25 26 26 25 25 31 30 29 28 25 24 22 18 15 16 17 19 17 16 14 14 14 14 12 10
6 12 8 10 8 7 9 5 4 3 11 11 14 18 18 15 13 7 9 10 16 17 19 22 23 25 25 24 23 25 24 23 24 25 25 21 19 19 17 14 15 17 17 13 14 13 14 14 12
7 7 11 11 9 5 13 8 7 9 9 12 14 18 10 13 12 11 9 6 13 20 22 22 26 27 27 22 24 28 27 25 25 26 26 23 23 23 18 16 15 15 14 15 14 13 14 15 15
6 5 5 6 8 11 9 17 16 12 8 12 12 13 15 12 12 13 8 9 10 16 23 26 26 30 32 32 24 28 30 29 25 27 28 27 24 22 19 18 17 18 17 16 15 15 14 15 15
3 4 7 6 9 6 11 19 8 3 5 8 9 11 9 6 8 9 9 9 9 15 19 27 37 34 35 38 40 36 32 27 29 28 29 31 31 27 23 22 23 22 21 17 16 15 15 14 14
1 6 7 10 11 10 8 18 14 4 1 2 7 6 7 9 10 9 9 8 9 16 18 22 30 33 37 42 43 40 40 32 31 32 31 30 31 30 28 29 23 22 21 19 17 18 16 14 14
3 3 6 2 2 5 10 12 9 7 8 5 4 7 8 9 9 10 11 12 11 10 13 13 16 23 34 41 46 45 39 38 34 33 32 34 34 32 30 32 23 24 22 19 18 17 13 14 13
2 4 4 3 4 3 5 6 1 5 6 8 6 6 6 9 7 10 14 14 17 15 15 10 9 17 24 36 39 40 40 41 39 34 36 37 31 35 35 26 26 26 22 23 17 14 14 12 13
3 3 2 5 1 6 6 7 8 11 6 7 8 7 6 6 8 11 14 16 17 15 17 13 8 10 20 26 26 23 28 34 39 39 38 39 34 34 30 29 29 25 23 19 15 16 13 13 13
2 3 4 3 1 9 10 13 12 13 11 10 9 8 6 6 8 10 16 18 16 18 18 16 11 5 18 16 15 19 25 30 34 39 40 35 34 34 31 30 31 29 24 22 18 14 12 13 11
6 5 5 5 5 7 13 17 15 14 9 8 6 5 9 7 6 13 15 14 17 18 20 19 16 11 5 14 17 18 13 19 25 24 32 37 34 34 35 33 28 26 22 23 19 18 11 13 12
5 6 4 4 5 7 9 13 1 4 6 2 5 4 5 7 8 8 9 15 17 19 21 23 22 20 14 8 13 16 17 16 14 21 27 40 39 39 38 32 31 28 25 21 19 18 16 11 10
7 8 4 4 5 7 2 6 6 3 5 6 8 6 7 6 4 7 10 14 15 17 22 26 24 24 18 12 10 19 22 20 24 25 24 33 39 37 34 34 33 30 23 22 17 17 17 14 12
1 5 2 4 9 5 6 5 1 6 6 7 7 5 7 6 4 6 8 13 19 19 19 21 26 26 25 19 13 14 22 24 27 24 25 30 36 34 31 33 31 29 25 20 18 17 19 19 15
5 3 0 1 2 5 2 4 4 6 8 5 8 8 10 8 10 10 11 11 14 17 18 18 19 25 25 23 19 17 21 24 24 24 26 25 25 22 29 28 29 27 24 20 18 19 19 17 18
4 0 4 3 4 3 2 7 9 7 11 10 13 14 10 11 14 14 14 14 15 17 19 19 16 21 23 24 24 23 26 28 27 29 27 25 24 22 33 32 30 26 24 18 16 17 17 18 20
4 3 3 5 4 6 5 8 2 4 6 10 12 10 8 12 12 12 14 16 16 19 19 20 18 18 19 21 23 22 23 23 27 30 29 30 29 27 29 30 27 23 19 15 16 15 16 18 18
4 6 2 5 2 6 6 7 9 9 7 4 3 3 10 13 15 12 11 13 16 19 19 19 20 20 21 22 24 26 25 25 26 29 29 30 28 23 27 26 25 22 15 15 15 16 17 15 18
5 9 3 2 4 6 6 12 9 8 10 6 7 9 12 14 15 15 9 11 13 15 19 22 17 18 21 23 23 24 24 23 26 27 27 27 23 23 21 24 22 19 16 17 17 16 15 15 16
6 6 2 2 3 4 6 5 3 5 7 11 11 10 14 15 13 14 12 13 14 16 18 20 21 18 20 22 24 25 26 24 24 25 24 25 21 20 21 22 20 19 18 19 18 16 15 16 19
5 10 11 7 6 5 4 10 4 9 5 6 14 18 17 14 15 14 12 16 17 16 19 21 22 21 22 25 26 25 26 25 24 25 24 22 21 19 19 19 19 19 21 20 20 18 18 19 19
Wind_Direction
344 359 325 59 230 245 214 195 291 190 182 208 267 246 252 272 218 235 36 179 171 164 169 176 178 177 174 170 167 166 167 167 168 166 168 167 168 168 167 168 167 165 161 158 157 156 147 145 139
355 61 41 117 241 223 212 192 198 221 317 305 292 253 256 274 240 262 262 171 172 167 170 174 179 180 177 175 172 170 168 169 169 167 168 169 171 172 172 170 168 165 164 160 158 153 146 141 134
91 75 266 241 205 239 188 208 202 234 294 250 304 290 282 309 323 282 326 178 167 167 169 176 180 182 181 178 175 173 171 171 170 169 170 171 173 173 174 174 171 168 167 161 160 154 148 146 147
188 117 102 238 237 220 284 199 198 300 308 195 302 297 308 104 328 295 302 180 168 170 171 179 181 183 185 183 178 174 173 172 172 172 175 174 176 178 178 179 177 175 169 169 166 164 160 160 159
44 124 215 241 262 215 235 273 282 295 302 286 329 329 314 336 335 309 194 181 170 168 172 179 183 183 188 186 182 178 177 176 177 177 179 179 181 183 183 186 185 182 178 181 177 177 175 172 169
184 232 217 241 243 190 230 244 288 298 294 308 325 327 357 346 352 354 178 177 177 168 173 177 184 187 188 188 186 184 183 182 182 183 184 185 187 189 189 190 192 193 191 190 189 188 191 188 187
219 214 241 245 266 271 201 182 126 308 317 331 336 304 340 360 349 6 142 177 179 172 171 176 182 189 192 192 190 190 190 189 188 190 191 192 194 195 195 194 196 198 202 203 202 200 202 203 208
202 216 229 231 246 256 210 146 266 290 305 317 342 350 339 350 346 357 137 148 175 177 177 178 180 186 193 197 196 195 195 196 195 196 198 200 200 202 202 200 200 204 208 213 219 220 216 215 219
163 226 235 228 231 236 183 193 231 253 278 292 295 321 326 341 338 349 191 178 192 185 183 185 185 186 193 198 201 200 200 202 202 203 205 205 202 208 211 208 209 209 216 222 228 234 231 228 224
202 229 226 230 240 232 196 217 278 301 285 277 295 299 329 332 355 317 257 216 205 207 195 194 192 193 193 198 200 202 204 205 205 205 207 205 205 208 212 216 217 221 224 232 237 240 243 235 235
187 236 221 211 230 236 240 200 204 255 291 312 322 322 328 326 328 324 278 236 220 218 219 205 200 201 201 202 203 202 204 205 204 206 207 207 211 215 216 218 217 221 227 226 233 230 234 236 232
225 232 235 234 248 273 256 305 238 223 262 295 299 302 303 316 313 306 297 255 226 212 215 219 210 209 210 209 212 210 207 209 210 212 216 213 218 220 217 216 219 222 223 224 228 232 230 240 238
218 227 252 244 259 263 274 261 266 273 275 281 292 299 299 301 304 315 312 280 246 225 218 221 222 218 222 221 220 217 217 216 216 217 219 221 225 226 223 228 225 227 230 229 231 236 236 240 245
163 222 259 266 248 238 253 263 271 292 6 317 307 308 308 317 320 317 337 311 282 269 237 222 226 228 228 227 227 226 224 222 222 225 226 229 233 233 229 232 234 235 235 233 235 239 238 242 244
229 262 252 239 239 239 225 255 250 79 28 261 308 319 337 344 347 358 343 337 321 307 282 236 228 226 224 234 233 232 230 227 228 230 234 239 240 242 239 240 237 240 238 236 239 243 246 242 246
217 234 247 71 242 239 212 239 111 32 22 329 322 308 327 331 331 339 344 344 360 345 296 278 234 231 231 227 233 234 233 231 232 234 237 241 245 249 251 249 243 248 246 234 232 235 234 238 241
171 234 210 154 48 337 215 243 13 4 347 312 301 307 312 316 328 338 341 344 352 0 355 322 271 235 245 239 230 233 237 236 238 240 240 245 247 253 256 257 252 250 246 240 224 224 227 235 241
177 224 227 257 7 322 277 274 289 300 276 264 289 296 278 297 306 325 330 332 337 343 352 356 322 297 278 250 235 236 239 239 239 240 245 247 243 252 253 255 254 250 242 236 219 216 222 230 237
240 242 245 272 186 324 299 298 292 286 281 250 226 250 266 266 290 322 325 326 332 331 341 349 356 271 227 228 226 232 233 233 236 240 244 249 248 247 248 256 251 245 234 230 225 219 218 227 225
203 211 225 290 290 312 308 303 291 285 273 267 272 244 283 289 291 311 316 324 325 323 327 328 331 334 280 237 236 228 232 238 239 237 239 239 243 245 246 246 242 241 225 226 219 216 207 223 208
186 204 190 265 310 274 305 290 168 319 271 226 321 310 264 275 295 313 320 330 332 330 328 322 322 317 310 280 248 242 234 237 237 237 237 244 247 242 240 240 237 235 225 224 220 215 212 219 208
209 199 202 239 296 299 329 292 263 240 334 149 17 352 330 313 307 314 326 331 332 326 327 322 316 311 304 299 261 237 238 233 230 237 239 236 239 235 238 240 234 229 228 221 217 218 213 205 201
158 158 223 274 287 281 237 250 262 213 256 212 328 325 338 345 329 315 315 324 324 328 324 322 316 307 303 303 287 254 246 242 243 237 242 239 242 238 235 232 225 226 224 226 221 216 215 212 205
136 167 120 149 244 252 184 257 185 209 217 240 313 323 316 331 343 328 319 318 320 325 323 318 310 304 304 303 298 273 253 244 242 240 236 236 231 227 227 223 219 222 225 224 226 227 220 208 208
167 202 290 239 211 282 130 285 260 241 240 257 293 302 315 336 329 328 322 326 324 326 321 318 306 296 301 303 297 283 266 256 238 239 238 228 225 221 222 219 219 219 221 224 230 219 212 205 208
171 209 252 288 268 295 230 248 231 183 265 284 297 311 318 338 334 319 314 316 315 323 324 317 306 297 297 294 287 278 265 251 241 235 236 230 225 225 226 222 216 212 211 226 221 213 207 204 205
147 215 356 260 298 274 246 261 261 260 230 282 341 341 348 342 334 328 314 303 306 317 318 318 305 301 297 293 289 283 273 253 240 236 235 233 226 222 230 222 209 206 210 216 205 199 195 198 205
255 146 183 178 258 257 255 273 255 278 299 306 312 326 339 340 332 330 316 307 305 309 314 319 305 301 301 299 291 281 273 262 251 242 233 229 222 222 212 205 201 200 201 197 187 187 187 196 203
207 206 160 244 235 265 293 259 231 247 290 304 301 315 324 326 323 325 315 308 309 310 312 315 314 316 316 311 298 289 274 261 248 237 235 231 223 214 205 201 198 192 186 184 181 185 191 192 194
259 250 220 228 221 236 282 269 219 245 289 307 307 307 311 308 307 312 309 307 306 306 311 314 314 312 311 312 306 292 279 268 244 234 226 218 210 205 197 195 191 181 181 178 182 185 186 189 192